Regional Weather Roundup
Issued by NWS

Home | Current Version | Previous Version | Text Only | Print | Product List | Glossary On
Versions: 1 2 3 4 5 6 7 8 9 10 11 12 13 14 15 16 17 18 19 20 21 22 23 24 25 26 27 28
000
ASPQ40 PGUM 241412
RWRPQ
WEATHER ROUNDUP FOR THE MARIANAS AND MICRONESIA
NATIONAL WEATHER SERVICE TIYAN GU
1200 AM CHST SUN FEB 25 2018

GUZ001>004-241500-
MARIANA ISLANDS-

CITY           SKY/WX    TMP DP  RH WIND       PRES   REMARKS
GUAM AIRPORT   MOCLDY    79  75  89 E10       29.94
ANDERSEN AFB   MOCLDY    79  72  78 E16       29.94F
ROTA AIRPORT   NOT AVBL
TINIAN AP      NOT AVBL
SAIPAN AP      CLOUDY    79  75  89 NE15      29.94S

$$

PMZ161-241500-
REPUBLIC OF PALAU-

CITY           SKY/WX    TMP DP  RH WIND       PRES   REMARKS
KOROR AP       MOCLDY    77  75  94 CALM      29.85S
KOROR WSO      CLOUDY    79  77  94 CALM      29.86F

$$

PMZ171>174-241500-
FEDERATED STATES OF MICRONESIA-

CITY           SKY/WX    TMP DP  RH WIND       PRES   REMARKS
YAP AIRPORT    MOCLDY    81  79  94 VRB3      29.89R
CHUUK AP       PTCLDY    82  77  83 E9        29.82F HX  91
POHNPEI AP     CLOUDY    81  77  89 NE17      29.82F
POHNPEI WSO    CLOUDY    81  77  89 NE6       29.85F
KOSRAE AP      NOT AVBL

$$

PMZ181-241500-
REPUBLIC OF THE MARSHALL ISLANDS-

CITY           SKY/WX    TMP DP  RH WIND       PRES   REMARKS
KWAJALEIN AP   PTCLDY    81  72  74 NE21      29.83F
MAJURO AP      NOT AVBL
MAJURO WSO     MOCLDY    81  75  83 E9        29.80F

$$





USA.gov is the U.S. government's official web portal to all federal, state and local government web resources and services.